Terminal Aerodrome Forecast
Issued by NWS Nashville, TN

Home | Current Version | Previous Version | Text Only | Print | Product List | Glossary On
Versions: 1 2 3 4 5 6 7 8 9 10 11 12 13 14 15 16 17 18 19 20 21 22 23 24 25 26 27
000
FTUS44 KOHX 262332
TAFCSV
TAF
KCSV 262332Z 2700/2724 VRB04KT P6SM SCT250
     FM270900 15003KT P6SM BKN100
     FM271500 16008KT P6SM VCSH BKN040 OVC100
     FM272000 18012G17KT P6SM OVC050=

USA.gov is the U.S. government's official web portal to all federal, state and local government web resources and services.